Weather in George Town

Bahamas     23°32′03″N   75°47′43″W
temp.,
°C
wind,
m/s
gust,
m/s
humid.,
%
clouds,
%
prec.,
mm/h
press.,
hPa
HPBL,
m
27 october, wed
wed2723:00+28wsw44740 0.0 1013629
02:00+28wsw44760 0.0 1011655
05:00+28wsw56780 0.0 1011762
08:00+28wsw56774 0.0 1012852
11:00+28wsw66772 0.9 1014769
14:00+28wsw67751 1.1 1012860
17:00+28wsw67763 0.0 1011876
20:00+28w45765 0.3 1013584
28 october, thu
thu2823:00+28w347888 1.0 1013221
02:00+28w347399 2.2 1012513
05:00+28wsw447350 0.1 1012614
08:00+28sw4572100 0.1 1013663
11:00+28sw5573100 0.0 1014786
14:00+28sw5572100 0.0 1012796
17:00+28wsw4472100 0.0 1012787
20:00+28sw4474100 0.0 1012666
29 october, fri
fri2923:00+28s347449 0.0 1013521
02:00+28s5674100 0.0 1011591
05:00+28ssw677592 0.0 1011786
08:00+28ssw7876100 0.0 1012961
11:00+28sw787788 0.6 1013924
14:00+28sw8876100 0.6 1011984
17:00+28sw7876100 0.0 1010852
20:00+28sw5674100 0.0 1011694
30 october, sat
sat3023:00+28ssw5676100 0.6 1011558
02:00+28ssw797797 4.1 1010810
05:00+28sw897499 2.5 1010967
08:00+28sw6770100 2.6 1011974
11:00+28sw7772100 0.1 10121030
14:00+28wsw6775100 1.6 1010901
17:00+28wsw667363 0.1 1010947
20:00+28wsw347499 0.1 1011790
31 october, sun
sun3123:00+27w33805 2.2 1012271
02:00+26w33784 4.6 1012228
05:00+27wnw227131 0.9 1012556
08:00+27nnw116742 0.9 1014583
11:00+27nne11664 0.0 1015538
14:00+28nnw22665 0.0 1014786
17:00+28nne33675 0.0 1014902
20:00+27nne44682 0.0 1016847